Tracking 23764 objects as of 18-Oct-2021
HD Live streaming from Space Station
objects crossing your sky now

OBJECT AE

Track OBJECT AE now!
10-day predictions


NORAD ID: 43786
Int'l Code: 2018-099AE
Perigee: 576.7 km
Apogee: 597.7 km
Inclination: 97.7 °
Period: 96.3 minutes
Semi major axis: 6958 km
RCS: Unknown
Launch date: December 3, 2018
Source: (TBD)
Launch site: AIR FORCE WESTERN TEST RANGE (AFWTR)
aabbcc
Your satellite tracking list
Your tracking list is empty




NASA's NSSDC Master Catalog

Two Line Element Set (TLE):
1 43786U 18099AE  21290.12871349  .00000838  00000-0  80156-4 0  9997
2 43786  97.6556 358.3263 0015097   9.4393 350.7109 14.95750248156673
Source of the keplerian elements: AFSPC